TimeEDT,TemperatureF,Dew PointF,Humidity,Sea Level PressureIn,VisibilityMPH,Wind Direction,Wind SpeedMPH,Gust SpeedMPH,PrecipitationIn,Events,Conditions,WindDirDegrees,DateUTC
12:53 AM,37.0,28.0,70,30.04,10.0,Calm,Calm,-,N/A,,Clear,0,2013-10-25 04:53:00
1:53 AM,35.1,28.0,76,30.04,10.0,Calm,Calm,-,N/A,,Clear,0,2013-10-25 05:53:00
2:53 AM,30.9,27.0,85,30.04,10.0,Calm,Calm,-,N/A,,Clear,0,2013-10-25 06:53:00
3:53 AM,28.9,27.0,92,30.05,10.0,Calm,Calm,-,N/A,,Clear,0,2013-10-25 07:53:00
4:53 AM,28.0,26.1,92,30.07,10.0,Calm,Calm,-,N/A,,Clear,0,2013-10-25 08:53:00
5:53 AM,27.0,25.0,92,30.08,10.0,Calm,Calm,-,N/A,,Clear,0,2013-10-25 09:53:00
6:53 AM,28.9,26.1,89,30.10,10.0,Calm,Calm,-,N/A,,Clear,0,2013-10-25 10:53:00
7:53 AM,28.9,27.0,92,30.13,10.0,Calm,Calm,-,N/A,,Clear,0,2013-10-25 11:53:00
8:53 AM,39.9,32.0,73,30.14,10.0,Calm,Calm,-,N/A,,Clear,0,2013-10-25 12:53:00
9:53 AM,46.0,33.1,61,30.15,10.0,Variable,6.9,-,N/A,,Clear,0,2013-10-25 13:53:00
10:53 AM,48.0,32.0,54,30.15,10.0,Variable,6.9,17.3,N/A,,Partly Cloudy,0,2013-10-25 14:53:00
11:53 AM,50.0,32.0,50,30.16,10.0,WNW,8.1,-,N/A,,Overcast,300,2013-10-25 15:53:00
12:53 PM,51.1,30.9,46,30.14,10.0,WNW,9.2,-,N/A,,Overcast,300,2013-10-25 16:53:00
1:53 PM,53.1,28.9,40,30.14,10.0,Variable,5.8,16.1,N/A,,Overcast,0,2013-10-25 17:53:00
2:53 PM,54.0,27.0,35,30.13,10.0,NW,13.8,21.9,N/A,,Overcast,320,2013-10-25 18:53:00
3:53 PM,53.1,26.1,35,30.14,10.0,NW,15.0,21.9,N/A,,Scattered Clouds,320,2013-10-25 19:53:00
4:53 PM,53.1,28.0,38,30.14,10.0,NW,8.1,16.1,N/A,,Clear,320,2013-10-25 20:53:00
5:53 PM,50.0,28.0,43,30.15,10.0,WNW,4.6,-,N/A,,Partly Cloudy,300,2013-10-25 21:53:00
6:53 PM,45.0,30.0,56,30.18,10.0,Calm,Calm,-,N/A,,Partly Cloudy,0,2013-10-25 22:53:00
7:53 PM,41.0,32.0,70,30.20,8.0,Calm,Calm,-,N/A,,Scattered Clouds,0,2013-10-25 23:53:00
8:53 PM,37.9,30.9,76,30.21,10.0,Calm,Calm,-,N/A,,Partly Cloudy,0,2013-10-26 00:53:00
9:53 PM,37.0,30.9,79,30.22,10.0,Calm,Calm,-,N/A,,Clear,0,2013-10-26 01:53:00
10:53 PM,33.1,30.0,89,30.24,10.0,Calm,Calm,-,N/A,,Clear,0,2013-10-26 02:53:00
11:53 PM,32.0,28.9,88,30.23,10.0,Calm,Calm,-,N/A,,Clear,0,2013-10-26 03:53:00